[[{"header":{"parameterUnit":"m.s-1","parameterCategory":1,"la1":30.2991,"la2":30.254,"lo1":-89.0895,"lo2":-89.0444,"dy":0.0017,"dx":0.0017,"nx":28,"ny":28,"refTime":"2025-06-22T21:00:00:Z","depth":0,"parameterNumber":2,"parameterNumberName":"U-component_of_WINDS"},"data":[0,0,0,0,0,0,0,0,0,0,0,0,0,0,0,0,0,0,0,0,0,0,0,0,0,0,0,0,0,0,0,0,0,0,0,0,0,0,0,0,0,0,0,0,0,0,0,0,0,0,0,0,0,0,0,0,0,0,-1.8217,-1.8218,0,-1.8235,-1.8236,-1.8236,-1.8206,-1.8205,-1.8204,-1.8203,-1.8224,-1.8225,-1.8227,0,0,0,0,0,0,0,0,0,0,0,0,0,-1.816,-1.8162,-1.8217,-1.8218,-1.8218,-1.8235,-1.8236,-1.8236,-1.8206,-1.8205,-1.8204,-1.8203,-1.8223,-1.8225,-1.8227,0,0,0,0,0,0,0,0,0,0,0,0,0,-1.8183,-1.8162,-1.8217,-1.8205,-1.8204,-1.8235,-1.8236,-1.8236,-1.8207,-1.8205,-1.8204,-1.8202,-1.8223,-1.8225,-1.8227,-1.8271,0,0,-1.8234,-1.8235,0,0,0,0,0,0,0,0,-1.8181,-1.8185,-1.8207,-1.8206,-1.8205,-1.8217,-1.8223,-1.8248,-1.8207,-1.8206,-1.8203,-1.8202,-1.8223,-1.8225,-1.8232,-1.8272,-1.8273,-1.8234,-1.8235,-1.8236,-1.8237,0,0,0,0,0,0,0,-1.818,-1.8184,-1.8224,-1.8207,-1.8206,-1.82,-1.8201,-1.8228,-1.8223,-1.8206,-1.8204,-1.8206,-1.8222,-1.823,-1.8232,-1.8273,-1.8234,-1.8236,-1.8237,-1.8238,-1.8353,-1.8355,0,0,0,0,0,0,-1.8179,-1.8183,-1.8224,-1.8225,-1.8189,-1.8202,-1.8204,-1.8215,-1.8222,-1.8222,-1.8207,-1.8205,-1.8227,-1.8229,-1.8233,-1.8286,-1.8236,-1.8238,-1.824,-1.8351,-1.8353,-1.8355,0,0,0,0,0,0,-1.8178,-1.8183,-1.8223,-1.8203,-1.8208,-1.8205,-1.8217,-1.8216,-1.8223,-1.8224,-1.8223,-1.8216,-1.8225,-1.8229,-1.8262,-1.8286,-1.8239,-1.8241,-1.8349,-1.8352,-1.8354,-1.8392,0,0,0,0,0,0,-1.8177,-1.8183,-1.8199,-1.8204,-1.8209,-1.8252,-1.8219,-1.8217,-1.8227,-1.8224,-1.8231,-1.8231,-1.8225,-1.8259,-1.8264,-1.8288,-1.8243,-1.8347,-1.835,-1.8353,-1.8388,-1.8395,-1.8401,0,0,0,0,0,-1.8175,-1.8209,-1.82,-1.8205,-1.8229,-1.8253,-1.8256,-1.8247,-1.8229,-1.8246,-1.8246,-1.8231,-1.8283,-1.8263,-1.8268,-1.8293,-1.8346,-1.835,-1.8353,-1.8385,-1.8394,-1.8401,0,0,0,0,0,0,-1.8207,-1.8209,-1.8199,-1.8236,-1.8244,-1.8248,-1.8268,-1.8256,-1.8271,-1.8267,-1.8256,-1.8258,-1.8294,-1.8297,-1.8274,-1.8337,-1.8311,-1.8316,-1.8334,-1.8342,-1.8348,-1.8346,-1.8245,0,0,0,0,0,-1.8219,-1.8237,-1.8238,-1.8271,-1.8275,-1.8271,-1.8281,-1.8274,-1.8283,-1.8287,-1.8289,-1.8299,-1.8318,-1.833,-1.8347,-1.8389,-1.8391,-1.8409,-1.8416,-1.8421,-1.8426,-1.8449,-1.8458,-1.8368,-1.8368,-1.8368,0,0,-1.8242,-1.8246,-1.8258,-1.8277,-1.8283,-1.8303,-1.8274,-1.8297,-1.8313,-1.829,-1.8321,-1.8324,-1.8334,-1.8372,-1.8389,-1.8376,-1.8451,-1.8426,-1.843,-1.8432,-1.8454,-1.8463,-1.847,-1.837,-1.837,-1.837,0,0,-1.8296,-1.83,-1.8327,-1.8334,-1.8343,-1.8341,-1.8348,-1.8353,-1.8354,-1.8385,-1.8369,-1.8388,-1.842,-1.8428,-1.8437,-1.8496,-1.8483,-1.8502,-1.8535,-1.8559,-1.8566,-1.8572,-1.8594,-1.8601,-1.8506,-1.8507,-1.8507,0,-1.8324,-1.8353,-1.8343,-1.8367,-1.8377,-1.8358,-1.8386,-1.8394,-1.8408,-1.8416,-1.8401,-1.8442,-1.8447,-1.8487,-1.8502,-1.8509,-1.8518,-1.85,-1.8565,-1.8571,-1.8577,-1.8598,-1.8606,-1.8509,-1.8509,-1.8508,-1.8508,0,-1.8388,-1.8409,-1.843,-1.8445,-1.8457,-1.8483,-1.8478,-1.8492,-1.8485,-1.8484,-1.8517,-1.8523,-1.8542,-1.8551,-1.8544,-1.8591,-1.8582,-1.8567,-1.854,-1.8588,-1.8607,-1.8615,-1.8512,-1.8511,-1.8511,-1.851,0,0,-1.8461,-1.847,-1.8478,-1.8485,-1.8495,-1.8511,-1.8538,-1.8556,-1.8568,-1.858,-1.8602,-1.8631,-1.8617,-1.8626,-1.862,-1.8641,-1.8688,-1.8623,-1.8623,-1.8635,-1.8742,-1.8753,-1.8763,-1.868,-1.8682,-1.8683,-1.8741,0,-1.8514,-1.8558,-1.8551,-1.8595,-1.8615,-1.8598,-1.8621,-1.863,-1.8631,-1.8649,-1.865,-1.8671,-1.865,-1.8657,-1.8676,-1.8678,-1.871,-1.8674,-1.8702,-1.8703,-1.8699,-1.8773,-1.8785,-1.8839,-1.8748,-1.875,-1.8751,0,-1.8582,-1.8596,-1.8641,-1.8649,-1.8657,-1.8678,-1.8694,-1.8712,-1.8722,-1.8722,-1.8734,-1.8724,-1.8752,-1.8726,-1.8765,-1.8741,-1.8752,-1.8755,-1.8757,-1.8759,-1.8729,-1.8777,-1.8856,-1.8865,-1.8762,-1.8761,-1.8761,0,-1.8631,-1.8661,-1.8692,-1.8699,-1.8709,-1.8724,-1.8729,-1.8738,-1.875,-1.8765,-1.8773,-1.8791,-1.8801,-1.8817,-1.8813,-1.8794,-1.8854,-1.8826,-1.8855,-1.8855,-1.8867,-1.8866,-1.895,-1.8875,-1.8875,-1.8874,-1.8874,0,-1.8692,-1.872,-1.8715,-1.8734,-1.8766,-1.8758,-1.8791,-1.8794,-1.8803,-1.8823,-1.881,-1.883,-1.8825,-1.8845,-1.8842,-1.8876,-1.888,-1.8881,-1.888,-1.8882,-1.8882,-1.8889,-1.8886,-1.8877,-1.8876,-1.8876,-1.8875,0,-1.8752,-1.8749,-1.8782,-1.8789,-1.8791,-1.8815,-1.8821,-1.884,-1.884,-1.8867,-1.8873,-1.8874,-1.8897,-1.8895,-1.8921,-1.892,-1.8961,-1.8956,-1.8957,-1.8956,-1.8984,-1.8982,-1.9075,-1.9087,-1.9004,-1.9005,-1.9006,0,-1.879,-1.8812,-1.8821,-1.8833,-1.8839,-1.886,-1.8872,-1.8866,-1.8879,-1.8894,-1.8912,-1.8934,-1.8951,-1.8989,-1.8993,-1.9013,-1.9008,-1.904,-1.9011,-1.9013,-1.9009,-1.9008,-1.9011,-1.9045,-1.9046,-1.9047,-1.9047,0,-1.8859,-1.8857,-1.8874,-1.8892,-1.8907,-1.892,-1.8933,-1.8944,-1.894,-1.8956,-1.8979,-1.8992,-1.9019,-1.9042,-1.9062,-1.9068,-1.9058,-1.9056,-1.9064,-1.9066,-1.9067,-1.9068,-1.8973,-1.9054,-1.9053,-1.9053,-1.9053,-1.9052,-1.891,-1.8929,-1.8938,-1.8959,-1.8967,-1.898,-1.8998,-1.9001,-1.902,-1.9041,-1.9037,-1.9063,-1.9076,-1.9101,-1.911,-1.9131,-1.912,-1.9131,-1.9134,-1.9137,-1.914,-1.9063,-1.9135,-1.9135,-1.9135,-1.9134,-1.9134,0,-1.8979,-1.8984,-1.9003,-1.9021,-1.9037,-1.9026,-1.9039,-1.9054,-1.9077,-1.9089,-1.9107,-1.9134,-1.9156,-1.9162,-1.9184,-1.92,-1.9196,-1.9206,-1.9205,-1.9207,-1.9149,-1.914,-1.9209,-1.9209,-1.9209,-1.9209,-1.9209,-1.9209,-1.9016,-1.9048,-1.9047,-1.9084,-1.909,-1.9115,-1.9124,-1.9136,-1.9145,-1.9177,-1.9195,-1.9198,-1.9209,-1.9231,-1.9252,-1.9253,-1.9262,-1.9274,-1.9273,-1.9219,-1.9211,-1.9204,-1.9196,-1.9276,-1.9276,-1.933,-1.9331,-1.9331]},{"header":{"parameterUnit":"m.s-1","parameterCategory":1,"la1":30.2991,"la2":30.254,"lo1":-89.0895,"lo2":-89.0444,"dy":0.0017,"dx":0.0017,"nx":28,"ny":28,"refTime":"2025-06-22T21:00:00:Z","depth":0,"parameterNumber":3,"parameterNumberName":"V-component_of_WINDS"},"data":[0,0,0,0,0,0,0,0,0,0,0,0,0,0,0,0,0,0,0,0,0,0,0,0,0,0,0,0,0,0,0,0,0,0,0,0,0,0,0,0,0,0,0,0,0,0,0,0,0,0,0,0,0,0,0,0,0,0,3.4208,3.4208,0,3.4256,3.4257,3.4257,3.4272,3.4271,3.4271,3.4271,3.4316,3.4318,3.4319,0,0,0,0,0,0,0,0,0,0,0,0,0,3.4126,3.4127,3.4208,3.4208,3.4209,3.4256,3.4257,3.4257,3.4272,3.4271,3.4271,3.4271,3.4316,3.4318,3.4319,0,0,0,0,0,0,0,0,0,0,0,0,0,3.4166,3.4128,3.4208,3.4222,3.4224,3.4256,3.4257,3.4257,3.4272,3.4271,3.4271,3.4271,3.4315,3.4318,3.432,3.434,0,0,3.4326,3.4327,0,0,0,0,0,0,0,0,3.4164,3.4169,3.4219,3.4221,3.4223,3.4258,3.4244,3.4285,3.4272,3.4253,3.4271,3.4271,3.4297,3.4301,3.431,3.4342,3.4344,3.4326,3.4328,3.4329,3.4329,0,0,0,0,0,0,0,3.4161,3.4167,3.4227,3.422,3.4222,3.4225,3.4231,3.4252,3.4276,3.4255,3.4256,3.4262,3.4298,3.4308,3.4311,3.4344,3.4326,3.4328,3.4329,3.433,3.4396,3.4397,0,0,0,0,0,0,3.4156,3.4165,3.4225,3.4228,3.4192,3.4227,3.4233,3.4247,3.4276,3.428,3.4262,3.4262,3.4305,3.4309,3.4313,3.4339,3.4329,3.4331,3.4332,3.4396,3.4396,3.4397,0,0,0,0,0,0,3.4155,3.4162,3.4223,3.4197,3.4205,3.4229,3.4244,3.4248,3.4258,3.4282,3.4286,3.4268,3.4305,3.431,3.4334,3.4341,3.4331,3.4333,3.4395,3.4396,3.4396,3.4391,0,0,0,0,0,0,3.4152,3.4161,3.4169,3.4197,3.4206,3.4244,3.4245,3.4249,3.4262,3.4263,3.4289,3.4292,3.4305,3.433,3.4336,3.4344,3.4335,3.4395,3.4395,3.4396,3.4391,3.4392,3.4392,0,0,0,0,0,3.4149,3.4165,3.417,3.4177,3.4218,3.4244,3.4249,3.4264,3.4263,3.4271,3.4287,3.4292,3.4339,3.4333,3.4339,3.4348,3.4394,3.4395,3.4396,3.4391,3.4392,3.4392,0,0,0,0,0,0,3.4135,3.4169,3.4174,3.42,3.4219,3.4247,3.4257,3.4265,3.4284,3.4284,3.43,3.4306,3.4328,3.434,3.4332,3.4369,3.4367,3.4369,3.436,3.4362,3.4362,3.4359,3.4337,0,0,0,0,0,3.4136,3.4156,3.4183,3.4203,3.4212,3.4233,3.4245,3.4255,3.4276,3.4284,3.4301,3.4319,3.4339,3.4351,3.437,3.4393,3.4399,3.4402,3.4403,3.4403,3.4405,3.4419,3.4421,3.44,3.44,3.44,0,0,3.4136,3.4156,3.4167,3.42,3.4217,3.4236,3.424,3.426,3.4275,3.4286,3.431,3.4323,3.4345,3.4369,3.438,3.4379,3.4412,3.4405,3.4405,3.4406,3.442,3.4422,3.4424,3.4401,3.4401,3.4401,0,0,3.4146,3.4163,3.4182,3.4199,3.4225,3.4239,3.4243,3.427,3.428,3.4304,3.4314,3.4331,3.4364,3.4379,3.4391,3.4409,3.4415,3.4415,3.4419,3.4432,3.4434,3.4435,3.4442,3.4444,3.4417,3.4417,3.4417,0,3.4142,3.4173,3.4191,3.4211,3.4226,3.4239,3.4258,3.4273,3.4302,3.4312,3.4311,3.4354,3.4369,3.4397,3.4402,3.4411,3.4416,3.4412,3.4432,3.4434,3.4436,3.4442,3.4445,3.4416,3.4416,3.4416,3.4416,0,3.4168,3.4189,3.4201,3.4232,3.4247,3.4267,3.4287,3.43,3.4309,3.4323,3.4348,3.4368,3.4391,3.4399,3.4407,3.4428,3.4427,3.4429,3.4427,3.4437,3.4444,3.4446,3.4416,3.4416,3.4416,3.4416,0,0,3.417,3.4211,3.4215,3.423,3.4259,3.4276,3.4296,3.4321,3.4332,3.4352,3.4369,3.4398,3.44,3.4414,3.4424,3.4436,3.445,3.4437,3.4438,3.4439,3.4475,3.4473,3.4476,3.4454,3.4455,3.4455,3.4473,0,3.4184,3.4222,3.4239,3.4269,3.4289,3.4303,3.432,3.434,3.4354,3.4372,3.4387,3.4407,3.4409,3.4418,3.443,3.4446,3.4457,3.4445,3.447,3.447,3.4464,3.4479,3.4477,3.4494,3.4476,3.4476,3.4477,0,3.4205,3.4228,3.426,3.4289,3.4298,3.4314,3.4338,3.4356,3.4379,3.4388,3.4404,3.4415,3.4436,3.4433,3.4462,3.4453,3.4465,3.4474,3.4475,3.4478,3.4474,3.4482,3.4499,3.4502,3.4481,3.448,3.448,0,3.4204,3.4242,3.4267,3.4279,3.4312,3.4323,3.4338,3.436,3.4375,3.4396,3.4405,3.4428,3.444,3.4457,3.4473,3.447,3.4501,3.45,3.4509,3.4509,3.4515,3.4514,3.4534,3.4522,3.4522,3.4522,3.4522,0,3.4218,3.4237,3.4267,3.4282,3.4304,3.4324,3.4345,3.436,3.438,3.4398,3.4411,3.4427,3.4447,3.4466,3.4478,3.4501,3.4506,3.4514,3.4517,3.4513,3.4512,3.452,3.452,3.4523,3.4523,3.4523,3.4522,0,3.422,3.4241,3.4269,3.4299,3.4307,3.4322,3.4348,3.4363,3.4378,3.4401,3.4407,3.443,3.4453,3.4471,3.45,3.4508,3.4533,3.4536,3.4525,3.4527,3.4536,3.4535,3.4561,3.4566,3.4551,3.4551,3.4551,0,3.4228,3.4243,3.4276,3.429,3.4305,3.4326,3.4342,3.4361,3.4376,3.4404,3.4416,3.444,3.446,3.4496,3.4515,3.4537,3.4541,3.4549,3.4545,3.454,3.4542,3.4541,3.4542,3.4549,3.4549,3.455,3.455,0,3.4239,3.4249,3.4271,3.4297,3.4316,3.4337,3.4358,3.4368,3.4391,3.4407,3.4432,3.4448,3.4479,3.4503,3.4527,3.4541,3.4549,3.4551,3.4555,3.455,3.4544,3.4548,3.4527,3.455,3.455,3.455,3.455,3.455,3.4245,3.426,3.4286,3.431,3.4328,3.4348,3.4364,3.4382,3.4404,3.4431,3.4441,3.4466,3.4489,3.4524,3.4538,3.4558,3.4558,3.4563,3.4564,3.4565,3.4565,3.4541,3.4562,3.4562,3.4562,3.4562,3.4562,0,3.4257,3.4275,3.4297,3.4328,3.4347,3.4355,3.4379,3.4394,3.4417,3.4438,3.4459,3.4487,3.451,3.4532,3.4556,3.4568,3.4572,3.4573,3.4572,3.4576,3.4563,3.4558,3.4569,3.4569,3.4569,3.4569,3.4569,3.4569,3.4266,3.4292,3.4305,3.4341,3.4358,3.4384,3.4397,3.4416,3.4433,3.4465,3.4485,3.4499,3.4521,3.4547,3.4569,3.4574,3.4583,3.4583,3.459,3.4577,3.4576,3.4575,3.4571,3.4585,3.4585,3.4601,3.4601,3.4601]}]]